loading
|

ONEWEB-0063, 45448

Orbit data source: Space-Track

ONEWEB-0063, 45448 is a payload satellite owned by One Web (UK) in LEO that was launched on Sat, 21 Mar 2020 UTC via a SOYUZ-2-1B launch vehicle from the Tyuratam Missile And Space Complex (TTMTR). Payloads include a variety of satellites, spacecraft, and rockets equipped with specific instruments for various scientific and technological missions. These include communications satellites like Starlink; space stations such as the ISS; scientific satellites like the Hubble; Earth observation satellites from companies like Planet Labs, Umbra, and HawkEye 360; GPS; miniature CubeSats for education and research; and military/defense satellites.

Loading next visibility...
Loading greatness...
ONEWEB-0063 details
Identifier
45448, 2020-020AA
Orbit
LEO
Last TLE update8 hours ago
Origin
Flag of UKOne Web (UK)
ManufacturerOne Web
MissionOperational Commercial Communications
Bus & MotorARROW, Unknown motor
Mass148 kg wet, ~140 kg dry
Launch date (UTC)
2020-03-21 (5 years ago)
Launch vehicle
SOYUZ-2-1B
Launch site
Tyuratam Missile And Space Complex (TTMTR)
Object type
Payload
Rocket body
Debris
Shape & HBRTrap Box + 2 Pan, 5 m
Radar Cross Section2.957 m², Large (>1 m²)

Expand to show TLE details & history

TLE from 8 hours ago
0 ONEWEB-0063
1 45448U 20020AA  24279.56775977 -.00000178  00000-0 -53914-3 0  9999
2 45448  87.8934 144.4817 0001409  70.3617 289.7663 13.11416616221481
Epoch: 2024-10-05T13:37Z
Definitive object data (Epoch: 2024-10-05T13:37:34.444Z)
Latitude0.00001°
Longitude-74.63403°
Altitude1,220.211 km
Speed7.244 km/s
True Right ascension09h 37m 55s
True Declination0° 00' 00"
Sunlit
Object was in daylight at TLE epoch
Predictive object data (real-time)
Latitude62.2538°
Longitude101.31103°
Altitude1,227.71 km
Speed7.247 km/s
Apparent Right ascension01h 05m 14s
Apparent Declination24° 02' 56"
Sunlit
Object is in daylight
Predictive observer data (real-time)
Local Sidereal Time15:32:39
Azimuth35.026° NE
Elevation-17.395°
Doppler factor1
Orbital elements
Apogee1,215.872 km
Perigee1,213.732 km
Semi-major axis7,592.939 km
Eccentricity0.0001409
Inclination87.8934°
RAAN144.4817°
Arg. of periapsis70.3617°
True anomaly289.7511°
Mean anomaly289.7663°
Eccentric anomaly289.7587°
Mean motion3.28041 °/min
BSTAR-0.00053914
Period109.74 mins
No data available

ONEWEB-0063 Visibility forecast

Observer location: 39.9160978°, -105.1181434

ONEWEB-0063 is not visible in the next 10 days
Span
Click to sort rows by Start time (UTC) header in descending order
Start Az.
Max El. time (UTC)
Max El. Az.
Max El.
End time (UTC)
End Az.